K6GMW Weather Reports


time (UTC)temp
F
wind
direction
speed
knots
gust
knots
rain 1hr
in
rain 24hr
in
rain mn
in
humidity
%
barometer
mb
20260505065622 69 157 4.3 12.2 0.00 0.00 0.00 80 1008.6
20260505065118 69 158 7.8 9.6 0.00 0.00 0.00 80 1008.7
20260505064615 69 168 5.2 7.8 0.00 0.00 0.00 80 1008.8
20260505064114 69 180 6.1 9.6 0.00 0.00 0.00 79 1008.8
20260505063611 69 174 7.8 11.3 0.00 0.00 0.00 79 1008.7
20260505063106 69 174 5.2 8.7 0.00 0.00 0.00 79 1008.9
20260505062603 69 163 4.3 8.7 0.00 0.00 0.00 79 1009.0
20260505062100 69 159 3.5 8.7 0.00 0.00 0.00 79 1009.0
20260505061558 69 157 9.6 9.6 0.00 0.00 0.00 79 1009.0
20260505061056 69 153 7.8 8.7 0.00 0.00 0.00 78 1009.0
20260505060553 69 176 5.2 7.8 0.00 0.00 0.00 78 1009.1
20260505060049 70 145 3.5 7.8 0.00 0.00 0.00 78 1009.2
20260505055544 70 165 7.0 7.8 0.00 0.00 0.00 77 1009.2
20260505055042 70 160 7.0 9.6 0.00 0.00 0.00 77 1009.3
20260505054539 70 159 3.5 9.6 0.00 0.00 0.00 77 1009.4
20260505054037 70 180 7.8 12.2 0.00 0.00 0.00 77 1009.2
20260505053534 70 170 5.2 7.8 0.00 0.00 0.00 77 1009.2
20260505053031 70 176 5.2 9.6 0.00 0.00 0.00 76 1009.4
20260505052527 70 172 7.8 11.3 0.00 0.00 0.00 76 1009.3
20260505052025 70 159 3.5 7.8 0.00 0.00 0.00 76 1009.4
20260505051522 71 154 4.3 11.3 0.00 0.00 0.00 75 1009.5
20260505051020 71 191 5.2 7.0 0.00 0.00 0.00 75 1009.4
20260505050518 71 166 5.2 9.6 0.00 0.00 0.00 75 1009.2
20260505041445 71 156 6.1 6.1 0.00 0.00 0.00 72 1009.4
20260505040943 71 178 3.5 11.3 0.00 0.00 0.00 71 1009.5
20260505040440 71 177 6.1 10.4 0.00 0.00 0.00 71 1009.5
20260505035937 71 162 8.7 10.4 0.00 0.00 0.00 70 1009.6
20260505035433 71 158 7.0 7.8 0.00 0.00 0.00 70 1009.5
20260505034930 72 157 9.6 10.4 0.00 0.00 0.00 69 1009.6
20260505034426 71 158 5.2 8.7 0.00 0.00 0.00 69 1009.6
20260505033924 71 172 2.6 8.7 0.00 0.00 0.00 69 1009.5
20260505033420 72 135 7.8 11.3 0.00 0.00 0.00 68 1009.4
20260505032919 71 151 7.0 11.3 0.00 0.00 0.00 67 1009.4
20260505032415 71 153 3.5 9.6 0.00 0.00 0.00 67 1009.4
20260505031912 71 144 7.0 7.8 0.00 0.00 0.00 67 1009.6
20260505031409 71 182 4.3 7.8 0.00 0.00 0.00 66 1009.5
20260505030906 71 145 5.2 5.2 0.00 0.00 0.00 66 1009.4
20260505030401 71 160 3.5 5.2 0.00 0.00 0.00 67 1009.6
20260505025857 71 155 3.5 7.0 0.00 0.00 0.00 66 1009.6
20260505025355 71 161 5.2 5.2 0.00 0.00 0.00 66 1009.5
20260505024854 71 176 3.5 6.1 0.00 0.00 0.00 65 1009.4
20260505024351 71 160 6.1 6.1 0.00 0.00 0.00 65 1009.4
20260505023848 71 165 2.6 5.2 0.00 0.00 0.00 65 1009.4
20260505023345 71 163 2.6 5.2 0.00 0.00 0.00 65 1009.3
20260505022842 71 165 2.6 4.3 0.00 0.00 0.00 65 1009.4
20260505022339 71 184 1.7 7.0 0.00 0.00 0.00 65 1009.5
20260505021836 71 181 2.6 3.5 0.00 0.00 0.00 64 1009.3
20260505021332 71 168 2.6 3.5 0.00 0.00 0.00 64 1009.3
20260505020828 72 167 4.3 4.3 0.00 0.00 0.00 63 1009.1
20260505020324 72 175 4.3 4.3 0.00 0.00 0.00 63 1009.2
20260505015821 72 164 2.6 4.3 0.00 0.00 0.00 62 1009.0
20260505015318 72 150 2.6 5.2 0.00 0.00 0.00 62 1009.0
20260505014816 72 164 1.7 2.6 0.00 0.00 0.00 63 1009.0
20260505014312 72 165 2.6 3.5 0.00 0.00 0.00 62 1009.2
20260505013809 72 158 1.7 3.5 0.00 0.00 0.00 62 1009.1
20260505013306 72 161 5.2 5.2 0.00 0.00 0.00 61 1009.0
20260505012805 72 172 2.6 4.3 0.00 0.00 0.00 61 1009.2
20260505012304 73 167 2.6 3.5 0.00 0.00 0.00 60 1009.0
20260505011757 73 179 3.5 4.3 0.00 0.00 0.00 59 1009.0
20260505011255 73 151 1.7 3.5 0.00 0.00 0.00 59 1008.9
20260505010750 74 169 1.7 5.2 0.00 0.00 0.00 58 1008.7
20260505010247 74 169 2.6 5.2 0.00 0.00 0.00 58 1008.9
20260505005743 74 180 3.5 3.5 0.00 0.00 0.00 58 1008.8
20260505005240 74 160 2.6 5.2 0.00 0.00 0.00 57 1008.8
20260505004737 75 169 2.6 4.3 0.00 0.00 0.00 56 1008.6
20260505004233 75 183 1.7 4.3 0.00 0.00 0.00 55 1008.9
20260505003731 75 175 1.7 4.3 0.00 0.00 0.00 56 1008.9
20260505003229 75 169 2.6 4.3 0.00 0.00 0.00 55 1009.0
20260505002725 75 164 5.2 7.0 0.00 0.00 0.00 54 1009.2
20260505002222 76 165 5.2 5.2 0.00 0.00 0.00 54 1009.2
20260505001720 76 161 2.6 7.8 0.00 0.00 0.00 53 1009.2
20260505001217 76 138 5.2 9.6 0.00 0.00 0.00 51 1009.1
20260505000714 77 182 3.5 7.8 0.00 0.00 0.00 52 1009.4
20260505000212 77 158 2.6 7.0 0.00 0.00 0.00 52 1009.5
20260504235708 77 144 6.1 9.6 0.00 0.00 0.00 51 1009.4
20260504235204 77 170 7.8 11.3 0.00 0.00 0.00 49 1009.4
20260504234702 78 171 3.5 7.8 0.00 0.00 0.00 49 1009.4
20260504234159 79 154 7.8 12.2 0.00 0.00 0.00 48 1009.6
20260504233654 79 175 6.1 9.6 0.00 0.00 0.00 48 1009.5
20260504233150 79 163 5.2 9.6 0.00 0.00 0.00 48 1009.5
20260504232648 79 166 6.1 7.8 0.00 0.00 0.00 48 1009.7
20260504232145 79 167 8.7 13.0 0.00 0.00 0.00 47 1009.8
20260504231642 79 152 10.4 13.0 0.00 0.00 0.00 47 1009.8
20260504231138 79 184 4.3 8.7 0.00 0.00 0.00 48 1009.7
20260504230634 79 173 7.0 10.4 0.00 0.00 0.00 47 1010.0
20260504230133 80 186 7.8 11.3 0.00 0.00 0.00 46 1010.0
20260504225631 80 162 9.6 11.3 0.00 0.00 0.00 46 1010.1
20260504225127 80 182 7.8 13.9 0.00 0.00 0.00 46 1010.3
20260504224624 80 151 6.1 11.3 0.00 0.00 0.00 46 1010.3
20260504224121 80 140 6.1 10.4 0.00 0.00 0.00 45 1010.2
20260504223618 80 167 8.7 10.4 0.00 0.00 0.00 46 1010.3
20260504223114 80 155 7.0 13.0 0.00 0.00 0.00 46 1010.7
20260504222611 80 139 15.6 15.6 0.00 0.00 0.00 45 1010.4
20260504222108 80 160 7.8 11.3 0.00 0.00 0.00 45 1010.4
20260504221605 80 152 11.3 13.0 0.00 0.00 0.00 46 1010.4
20260504221102 80 162 9.6 16.5 0.00 0.00 0.00 47 1010.4
20260504220558 80 162 4.3 7.0 0.00 0.00 0.00 48 1010.6
20260504220055 80 201 7.0 11.3 0.00 0.00 0.00 47 1010.6
20260504215552 81 164 6.1 11.3 0.00 0.00 0.00 47 1010.8
20260504215049 80 152 7.8 8.7 0.00 0.00 0.00 47 1010.8
20260504214545 81 167 7.0 11.3 0.00 0.00 0.00 46 1010.8
20260504214042 80 199 3.5 5.2 0.00 0.00 0.00 49 1010.8
20260504213538 80 166 6.1 14.8 0.00 0.00 0.00 49 1010.8
20260504213035 80 190 7.8 12.2 0.00 0.00 0.00 47 1011.0
20260504212531 80 163 9.6 11.3 0.00 0.00 0.00 48 1011.1
20260504212029 79 180 7.8 11.3 0.00 0.00 0.00 47 1011.1
20260504211525 79 172 6.1 11.3 0.00 0.00 0.00 48 1011.3
20260504211023 79 182 7.8 11.3 0.00 0.00 0.00 48 1011.5
20260504210519 80 196 6.1 10.4 0.00 0.00 0.00 47 1011.6
20260504210016 79 193 5.2 12.2 0.00 0.00 0.00 47 1011.6
20260504205514 80 163 13.0 16.5 0.00 0.00 0.00 46 1011.9
20260504205012 80 158 5.2 10.4 0.00 0.00 0.00 48 1011.8
20260504204510 79 155 8.7 12.2 0.00 0.00 0.00 48 1012.0
20260504204008 79 134 11.3 16.5 0.00 0.00 0.00 48 1011.9
20260504203506 79 153 7.8 12.2 0.00 0.00 0.00 47 1012.0
20260504203002 79 142 9.6 12.2 0.00 0.00 0.00 47 1012.2
20260504202458 79 180 6.1 10.4 0.00 0.00 0.00 46 1012.4
20260504201955 79 207 5.2 12.2 0.00 0.00 0.00 50 1012.5
20260504201453 79 157 8.7 11.3 0.00 0.00 0.00 48 1012.5
20260504200950 79 186 6.1 13.9 0.00 0.00 0.00 47 1012.6
20260504200447 79 171 7.8 9.6 0.00 0.00 0.00 51 1012.8
20260504195943 79 135 11.3 11.3 0.00 0.00 0.00 47 1012.9
20260504195439 78 151 4.3 12.2 0.00 0.00 0.00 48 1013.0
20260504194936 79 153 8.7 12.2 0.00 0.00 0.00 49 1013.2
20260504194432 78 137 6.1 9.6 0.00 0.00 0.00 47 1013.1
20260504193928 78 167 4.3 10.4 0.00 0.00 0.00 48 1013.4
20260504193425 78 160 7.8 13.0 0.00 0.00 0.00 47 1013.3
20260504192924 78 204 7.0 11.3 0.00 0.00 0.00 46 1013.4
20260504192421 78 215 6.1 11.3 0.00 0.00 0.00 49 1013.5
20260504191920 78 161 9.6 12.2 0.00 0.00 0.00 47 1013.6
20260504191418 77 186 5.2 13.9 0.00 0.00 0.00 48 1013.6
20260504190912 77 181 4.3 13.0 0.00 0.00 0.00 49 1013.6
20260504190408 78 180 7.8 14.8 0.00 0.00 0.00 47 1013.7
20260504185905 78 156 5.2 13.0 0.00 0.00 0.00 49 1013.6
20260504185403 77 151 7.0 11.3 0.00 0.00 0.00 48 1013.9
20260504184858 77 146 9.6 19.1 0.00 0.00 0.00 48 1014.0
20260504184354 76 144 5.2 12.2 0.00 0.00 0.00 49 1014.2
20260504183850 77 151 6.1 10.4 0.00 0.00 0.00 48 1014.1
20260504183348 77 188 3.5 10.4 0.00 0.00 0.00 48 1014.2
20260504182845 76 157 8.7 14.8 0.00 0.00 0.00 50 1014.2
20260504182343 76 156 7.8 13.0 0.00 0.00 0.00 47 1014.3
20260504181839 76 186 6.1 16.5 0.00 0.00 0.00 48 1014.5
20260504181337 77 148 11.3 13.0 0.00 0.00 0.00 48 1014.6
20260504180836 76 184 9.6 9.6 0.00 0.00 0.00 48 1014.6
20260504180334 76 163 5.2 13.9 0.00 0.00 0.00 49 1014.6
20260504175832 76 183 7.8 11.3 0.00 0.00 0.00 49 1014.7
20260504175328 75 173 7.0 13.0 0.00 0.00 0.00 49 1014.9
20260504174826 75 146 7.0 18.2 0.00 0.00 0.00 51 1014.9
20260504174324 75 171 5.2 13.9 0.00 0.00 0.00 52 1014.9
20260504173820 75 150 7.8 16.5 0.00 0.00 0.00 50 1015.1
20260504173317 75 166 7.0 13.0 0.00 0.00 0.00 50 1015.2
20260504172814 75 171 8.7 13.9 0.00 0.00 0.00 51 1015.2
20260504172311 75 163 8.7 13.0 0.00 0.00 0.00 48 1015.4
20260504171807 75 168 3.5 11.3 0.00 0.00 0.00 52 1015.4
20260504171304 75 128 9.6 16.5 0.00 0.00 0.00 50 1015.4
20260504170801 75 189 7.0 12.2 0.00 0.00 0.00 50 1015.4
20260504170258 75 156 5.2 16.5 0.00 0.00 0.00 49 1015.5
20260504160216 73 175 4.3 11.3 0.00 0.00 0.00 56 1016.0
20260504151144 70 198 7.8 16.5 0.00 0.00 0.00 60 1016.4
20260504150641 69 155 9.6 14.8 0.00 0.00 0.00 59 1016.4
20260504150138 69 161 7.0 13.0 0.00 0.00 0.00 62 1016.2
20260504141107 66 188 7.0 8.7 0.00 0.00 0.00 66 1016.8
20260504140604 66 185 3.5 7.0 0.00 0.00 0.00 69 1016.5
20260504130528 61 169 2.6 6.1 0.00 0.00 0.00 79 1016.3
20260504110415 55 138 1.7 2.6 0.00 0.00 0.00 87 1016.1
20260504100332 57 160 2.6 3.5 0.00 0.00 0.00 82 1016.3
20260504081726 55 131 1.7 1.7 0.00 0.00 0.00 90 1016.3
20260504081222 55 121 1.7 1.7 0.00 0.00 0.00 91 1016.1
20260504080718 54 125 1.7 3.5 0.00 0.00 0.00 94 1016.3
20260504080215 53 147 0.9 1.7 0.00 0.00 0.00 93 1016.2
20260504070142 54 136 1.7 1.7 0.00 0.00 0.00 93 1017.1